カタログに戻る

CZ-6A DEB

運用中PO
NORAD 60783·DEBRIS·🇨🇳 China

打ち上げ Aug 6, 2024 から Taiyuan Satellite Launch Center

Loading…

次のパス (今後24時間)

TLE

最新Source: Space-Track

元期: Sep 14, 2026, 10:39 UTC

1 60783U 24140FJ  26257.44389341  .00000397  00000-0  76177-4 0  9994
2 60783  89.0493 264.3936 0125517 302.5769  56.3371 14.56827630111061

AllMySatでCZ-6A DEBをリアルタイム追跡

Download on the App Store